EW9925 Weather Reports


time (UTC)temp
C
wind
direction
speed
KPH
gust
KPH
rain 1hr
cm
rain 24hr
cm
rain mn
cm
humidity
%
barometer
mb
20260507062734 10 57 0.0 3.2 0.00 0.00 0.00 94 1012.1
20260507062231 10 234 0.0 4.8 0.00 0.00 0.00 93 1012.2
20260507061730 10 27 0.0 4.8 0.00 0.00 0.00 93 1012.4
20260507061227 10 89 0.0 4.8 0.00 0.00 0.00 93 1012.2
20260507060725 10 24 1.6 4.8 0.00 0.00 0.00 93 1012.2
20260507060221 10 89 3.2 3.2 0.00 0.00 0.00 93 1012.1
20260507055718 10 75 0.0 4.8 0.00 0.00 0.00 94 1012.3
20260507055213 10 120 3.2 4.8 0.00 0.00 0.00 94 1012.2
20260507054709 10 119 1.6 6.4 0.00 0.00 0.00 93 1012.1
20260507054207 10 125 0.0 3.2 0.00 0.00 0.00 92 1012.1
20260507053704 10 282 3.2 4.8 0.00 0.00 0.00 92 1011.9
20260507053202 10 89 0.0 4.8 0.00 0.00 0.00 92 1012.2
20260507052701 10 170 0.0 6.4 0.00 0.00 0.00 92 1012.3
20260507052156 10 100 3.2 8.0 0.00 0.00 0.00 91 1012.2
20260507051654 10 80 4.8 8.0 0.00 0.00 0.00 91 1012.3
20260507051150 10 253 0.0 9.7 0.00 0.00 0.00 92 1012.3
20260507050647 10 285 4.8 12.9 0.00 0.00 0.00 91 1012.3
20260507050144 10 232 3.2 11.3 0.00 0.00 0.00 91 1012.2
20260507045641 10 29 6.4 12.9 0.00 0.00 0.00 92 1012.3
20260507045137 10 28 0.0 8.0 0.00 0.00 0.00 92 1012.0
20260507044635 10 84 1.6 9.7 0.00 0.00 0.00 91 1012.2
20260507044131 10 54 4.8 6.4 0.00 0.00 0.00 92 1012.0
20260507043627 10 104 3.2 6.4 0.00 0.00 0.00 92 1011.9
20260507043124 10 52 0.0 12.9 0.00 0.00 0.00 91 1012.2
20260507042621 11 71 6.4 11.3 0.00 0.00 0.00 91 1012.0
20260507042116 10 63 3.2 6.4 0.00 0.00 0.00 91 1012.0
20260507041613 10 268 1.6 9.7 0.00 0.00 0.00 91 1011.8
20260507041110 11 306 3.2 8.0 0.00 0.00 0.00 91 1011.8
20260507040607 11 310 4.8 8.0 0.00 0.00 0.00 91 1011.7
20260507035558 11 338 3.2 4.8 0.00 0.00 0.00 91 1011.5
20260507035055 11 117 1.6 6.4 0.00 0.00 0.00 90 1011.6
20260507034552 11 68 4.8 9.7 0.00 0.00 0.00 90 1011.6
20260507034050 11 136 3.2 11.3 0.00 0.00 0.00 90 1011.6
20260507033548 11 312 4.8 22.5 0.00 0.00 0.00 89 1011.4
20260507033045 11 355 3.2 9.7 0.00 0.00 0.00 89 1011.4
20260507032542 11 332 3.2 11.3 0.00 0.00 0.00 89 1011.4
20260507032038 11 280 4.8 9.7 0.00 0.00 0.00 89 1011.2
20260507031534 12 69 6.4 8.0 0.00 0.00 0.00 88 1011.1
20260507031032 12 56 0.0 11.3 0.00 0.00 0.00 88 1011.1
20260507030528 12 247 1.6 8.0 0.00 0.00 0.00 87 1011.0
20260507030026 12 294 8.0 9.7 0.00 0.00 0.00 87 1011.0
20260507025523 12 26 1.6 11.3 0.00 0.00 0.00 86 1011.0
20260507025020 12 335 3.2 9.7 0.00 0.00 0.00 86 1011.0
20260507024518 13 268 4.8 8.0 0.00 0.00 0.00 86 1011.0
20260507024014 13 312 1.6 8.0 0.00 0.00 0.00 85 1011.0
20260507023510 13 119 3.2 11.3 0.00 0.00 0.00 84 1011.0
20260507023003 13 271 4.8 8.0 0.00 0.00 0.00 83 1011.1
20260507022459 13 69 1.6 4.8 0.00 0.00 0.00 84 1011.1
20260507021954 13 5 4.8 9.7 0.00 0.00 0.00 82 1011.1
20260507021450 14 338 6.4 9.7 0.00 0.00 0.00 82 1011.1
20260507020947 14 23 1.6 16.1 0.00 0.00 0.00 82 1011.0
20260507020444 14 299 3.2 11.3 0.00 0.00 0.00 81 1011.1
20260507015941 15 333 9.7 14.5 0.00 0.00 0.00 80 1011.0
20260507015440 15 321 1.6 6.4 0.00 0.00 0.00 80 1011.2
20260507014936 15 0 4.8 19.3 0.00 0.00 0.00 79 1011.0
20260507014433 15 331 3.2 9.7 0.00 0.00 0.00 80 1011.0
20260507013929 15 275 4.8 9.7 0.00 0.00 0.00 79 1011.2
20260507013426 15 305 3.2 8.0 0.00 0.00 0.00 80 1011.0
20260507012924 15 338 8.0 14.5 0.00 0.00 0.00 79 1011.1
20260507012420 15 160 0.0 11.3 0.00 0.00 0.00 80 1010.9
20260507011916 15 331 8.0 12.9 0.00 0.00 0.00 78 1011.1
20260507011413 15 150 4.8 11.3 0.00 0.00 0.00 78 1011.2
20260507010908 16 289 3.2 17.7 0.00 0.00 0.00 77 1010.9
20260507010403 16 86 3.2 12.9 0.00 0.00 0.00 76 1011.0
20260507005901 16 284 3.2 9.7 0.00 0.00 0.00 76 1011.1
20260507005357 16 238 3.2 8.0 0.00 0.00 0.00 76 1011.2
20260507004854 16 333 6.4 17.7 0.00 0.00 0.00 75 1011.1
20260507004351 16 278 1.6 20.9 0.00 0.00 0.00 75 1011.0
20260507003850 17 62 3.2 11.3 0.00 0.00 0.00 75 1010.9
20260507003344 17 306 3.2 9.7 0.00 0.00 0.00 74 1011.0
20260507002839 17 262 4.8 6.4 0.00 0.00 0.00 75 1011.0
20260507002335 17 292 4.8 11.3 0.00 0.00 0.00 74 1011.0
20260507001833 17 203 3.2 11.3 0.00 0.00 0.00 74 1010.8
20260507001329 17 297 8.0 11.3 0.00 0.00 0.00 73 1011.0
20260507000826 18 296 1.6 11.3 0.00 0.00 0.00 74 1010.8
20260507000321 18 14 3.2 11.3 0.00 0.00 0.00 74 1010.9
20260506235818 18 198 1.6 12.9 0.00 0.00 0.00 73 1010.9
20260506235314 18 294 4.8 11.3 0.00 0.00 0.00 72 1011.0
20260506234805 18 285 1.6 11.3 0.00 0.00 0.00 72 1010.8
20260506234303 18 274 4.8 6.4 0.00 0.00 0.00 73 1010.8
20260506233800 18 277 4.8 12.9 0.00 0.00 0.00 72 1010.9
20260506233256 19 272 4.8 12.9 0.00 0.00 0.00 72 1010.9
20260506232753 18 289 8.0 14.5 0.00 0.00 0.00 72 1010.9
20260506232248 19 310 8.0 14.5 0.00 0.00 0.00 71 1010.9
20260506231745 20 46 4.8 14.5 0.00 0.00 0.00 71 1011.0
20260506231244 20 329 3.2 11.3 0.00 0.00 0.00 69 1011.0
20260506230740 20 91 3.2 6.4 0.00 0.00 0.00 71 1010.8
20260506230237 20 324 6.4 9.7 0.00 0.00 0.00 71 1010.8
20260506225734 21 314 4.8 14.5 0.00 0.00 0.00 66 1010.9
20260506225231 21 308 3.2 8.0 0.00 0.00 0.00 68 1011.0
20260506224727 21 322 4.8 4.8 0.00 0.00 0.00 66 1010.8
20260506224224 21 266 1.6 9.7 0.00 0.00 0.00 65 1010.8
20260506223720 21 87 4.8 8.0 0.00 0.00 0.00 63 1011.0
20260506223216 21 61 6.4 8.0 0.00 0.00 0.00 63 1011.0
20260506222714 21 285 3.2 8.0 0.00 0.00 0.00 66 1011.0
20260506222209 20 226 0.0 11.3 0.00 0.00 0.00 67 1011.0
20260506221707 21 306 3.2 9.7 0.00 0.00 0.00 67 1011.2
20260506221205 21 281 8.0 9.7 0.00 0.00 0.00 66 1011.2
20260506220702 21 165 4.8 9.7 0.00 0.00 0.00 65 1011.2
20260506220157 22 9 3.2 8.0 0.00 0.00 0.00 65 1011.3
20260506215653 21 284 0.0 6.4 0.00 0.00 0.00 65 1011.3
20260506215148 21 24 4.8 9.7 0.00 0.00 0.00 64 1011.3
20260506214646 21 354 3.2 6.4 0.00 0.00 0.00 65 1011.3
20260506214143 22 268 3.2 8.0 0.00 0.00 0.00 64 1011.3
20260506213642 21 289 3.2 4.8 0.00 0.00 0.00 71 1011.2
20260506213139 20 326 3.2 8.0 0.00 0.00 0.00 69 1011.3
20260506212636 20 271 1.6 3.2 0.00 0.00 0.00 71 1011.3
20260506212130 20 259 3.2 6.4 0.00 0.00 0.00 69 1011.3
20260506211626 20 164 4.8 8.0 0.00 0.00 0.00 71 1011.2
20260506211123 21 105 3.2 4.8 0.00 0.00 0.00 70 1011.2
20260506210620 20 255 3.2 12.9 0.00 0.00 0.00 71 1011.2
20260506210117 20 306 3.2 8.0 0.00 0.00 0.00 73 1011.2
20260506205614 19 186 1.6 4.8 0.00 0.00 0.00 71 1011.4
20260506205108 19 269 3.2 8.0 0.00 0.00 0.00 73 1011.6
20260506204607 18 113 1.6 4.8 0.00 0.00 0.00 75 1011.6
20260506204103 18 112 4.8 8.0 0.00 0.00 0.00 76 1011.5
20260506203602 18 107 1.6 8.0 0.00 0.00 0.00 77 1011.5
20260506203058 18 321 1.6 8.0 0.00 0.00 0.00 76 1011.9
20260506202556 18 174 3.2 8.0 0.00 0.00 0.00 74 1011.7
20260506202052 18 110 0.0 4.8 0.00 0.00 0.00 79 1011.6
20260506201549 18 126 1.6 6.4 0.00 0.00 0.00 80 1011.6
20260506201046 18 17 1.6 4.8 0.00 0.00 0.00 79 1012.0
20260506200542 18 330 8.0 17.7 0.00 0.00 0.00 77 1011.7
20260506200039 18 301 0.0 9.7 0.00 0.00 0.00 78 1011.7
20260506195536 18 3 3.2 6.4 0.00 0.00 0.00 78 1011.8
20260506195032 18 273 1.6 8.0 0.00 0.00 0.00 80 1011.7
20260506194530 17 289 1.6 8.0 0.00 0.00 0.00 79 1011.7
20260506194026 17 112 8.0 11.3 0.00 0.00 0.00 78 1011.9
20260506193523 18 140 1.6 11.3 0.00 0.00 0.00 79 1011.8
20260506193021 17 303 9.7 16.1 0.00 0.00 0.00 78 1011.8
20260506192517 16 337 3.2 17.7 0.00 0.00 0.00 81 1011.8
20260506192013 16 139 8.0 16.1 0.00 0.00 0.00 82 1011.7
20260506191510 17 138 3.2 8.0 0.00 0.00 0.00 78 1011.9
20260506191006 16 334 4.8 14.5 0.00 0.00 0.00 81 1011.8
20260506190503 17 122 3.2 9.7 0.00 0.00 0.00 83 1011.7
20260506190000 17 346 1.6 8.0 0.00 0.00 0.00 82 1012.0
20260506185458 16 120 0.0 6.4 0.00 0.00 0.00 85 1012.0
20260506184954 16 326 3.2 16.1 0.00 0.00 0.00 85 1011.9
20260506184451 16 347 11.3 17.7 0.00 0.00 0.00 83 1012.2
20260506183948 16 320 0.0 4.8 0.00 0.00 0.00 86 1011.9
20260506183444 15 345 3.2 9.7 0.00 0.00 0.00 87 1011.9
20260506182941 15 337 1.6 9.7 0.00 0.00 0.00 85 1011.9
20260506182438 15 359 0.0 8.0 0.00 0.00 0.00 85 1011.9
20260506181935 15 16 3.2 8.0 0.00 0.00 0.00 85 1011.9
20260506181433 16 331 1.6 6.4 0.00 0.00 0.00 84 1011.9
20260506180930 15 305 3.2 9.7 0.00 0.00 0.00 86 1011.9
20260506180426 15 181 6.4 16.1 0.00 0.00 0.00 86 1011.7
20260506175923 15 106 4.8 9.7 0.00 0.00 0.00 84 1011.7
20260506175420 15 339 4.8 6.4 0.00 0.00 0.00 86 1011.7
20260506174917 15 56 4.8 6.4 0.00 0.00 0.00 85 1012.1
20260506174414 14 329 3.2 8.0 0.00 0.00 0.00 88 1012.1
20260506173911 14 28 3.2 6.4 0.00 0.00 0.00 88 1012.1
20260506173408 14 326 3.2 4.8 0.00 0.00 0.00 86 1012.1
20260506172900 13 284 3.2 4.8 0.00 0.00 0.00 89 1011.8
20260506172356 13 120 6.4 8.0 0.00 0.00 0.00 90 1012.1
20260506171853 13 337 4.8 12.9 0.00 0.00 0.00 90 1012.0
20260506171351 13 355 0.0 4.8 0.00 0.00 0.00 90 1011.8
20260506170848 13 350 1.6 6.4 0.00 0.00 0.00 90 1011.8
20260506170343 13 89 0.0 3.2 0.00 0.00 0.00 91 1011.8
20260506165838 12 18 1.6 6.4 0.00 0.00 0.00 92 1011.9
20260506165335 12 144 0.0 6.4 0.00 0.00 0.00 93 1011.9
20260506164831 12 254 4.8 8.0 0.00 0.00 0.00 92 1011.8
20260506164327 12 48 1.6 8.0 0.00 0.00 0.00 92 1012.0
20260506163819 12 331 0.0 6.4 0.00 0.00 0.00 92 1012.0
20260506163314 12 1 1.6 6.4 0.00 0.00 0.00 91 1012.0
20260506162810 12 18 0.0 4.8 0.00 0.00 0.00 91 1011.9
20260506162308 12 346 3.2 9.7 0.00 0.00 0.00 92 1011.9
20260506161804 12 87 4.8 6.4 0.00 0.00 0.00 91 1011.8
20260506161301 13 40 3.2 4.8 0.00 0.00 0.00 92 1011.6
20260506160754 12 35 3.2 11.3 0.00 0.00 0.00 91 1011.5
20260506160250 12 310 3.2 11.3 0.00 0.00 0.00 93 1011.3
20260506155749 12 48 3.2 3.2 0.00 0.00 0.00 93 1011.3
20260506155245 11 113 3.2 6.4 0.00 0.00 0.00 93 1011.3
20260506153353 11 70 1.6 4.8 0.00 0.00 0.00 94 1011.7
20260506152850 11 29 0.0 4.8 0.00 0.00 0.00 94 1011.7
20260506152347 11 81 0.0 6.4 0.00 0.00 0.00 95 1011.9
20260506151845 11 45 1.6 8.0 0.00 0.00 0.00 95 1011.8
20260506151342 11 269 0.0 4.8 0.00 0.00 0.00 95 1012.0
20260506150839 11 347 4.8 16.1 0.00 0.00 0.00 95 1012.0
20260506150335 10 299 3.2 8.0 0.00 0.00 0.00 95 1012.2
20260506145832 10 284 3.2 11.3 0.00 0.00 0.00 95 1012.0
20260506145329 11 30 4.8 6.4 0.00 0.00 0.00 95 1011.9
20260506144826 11 31 1.6 8.0 0.00 0.00 0.00 95 1011.9
20260506144322 11 39 1.6 11.3 0.00 0.00 0.00 94 1011.8
20260506143821 11 310 3.2 9.7 0.00 0.00 0.00 95 1011.3
20260506143318 11 5 1.6 9.7 0.00 0.00 0.00 95 1011.4
20260506142816 11 335 4.8 9.7 0.00 0.00 0.00 94 1011.3
20260506142313 11 82 1.6 4.8 0.00 0.00 0.00 94 1011.0
20260506141812 11 348 1.6 4.8 0.00 0.00 0.00 94 1010.9
20260506141310 11 91 4.8 6.4 0.00 0.00 0.00 95 1010.6
20260506140807 11 124 6.4 9.7 0.00 0.00 0.00 96 1010.6
20260506140304 10 115 4.8 4.8 0.00 0.00 0.00 98 1010.6
20260506135801 10 22 0.0 4.8 0.00 0.00 0.00 98 1010.8
20260506135257 10 89 4.8 4.8 0.00 0.00 0.00 99 1010.8
20260506134754 10 169 0.0 4.8 0.00 0.00 0.00 99 1010.5
20260506134250 10 101 0.0 4.8 0.00 0.00 0.00 99 1010.9
20260506133747 10 103 0.0 4.8 0.00 0.00 0.00 99 1010.8
20260506133244 10 129 0.0 3.2 0.00 0.00 0.00 99 1010.9
20260506132741 10 89 0.0 1.6 0.00 0.00 0.00 99 1010.8
20260506132238 10 101 0.0 4.8 0.00 0.00 0.00 99 1010.6
20260506131736 10 89 0.0 1.6 0.00 0.00 0.00 98 1010.6
20260506131232 10 101 3.2 4.8 0.00 0.00 0.00 98 1010.6
20260506130729 10 138 0.0 3.2 0.00 0.00 0.00 98 1010.5
20260506130226 10 218 0.0 4.8 0.00 0.00 0.00 98 1010.3
20260506125724 10 136 1.6 3.2 0.00 0.00 0.00 98 1010.4
20260506125222 10 67 1.6 3.2 0.00 0.00 0.00 98 1010.3
20260506124719 10 297 0.0 4.8 0.00 0.00 0.00 98 1010.6
20260506124217 10 83 0.0 4.8 0.00 0.00 0.00 98 1010.4
20260506123714 10 108 0.0 3.2 0.00 0.00 0.00 98 1010.4
20260506123213 10 320 1.6 3.2 0.00 0.00 0.00 98 1010.6
20260506122709 10 344 0.0 3.2 0.00 0.00 0.00 98 1010.4
20260506122207 10 47 0.0 3.2 0.00 0.00 0.00 98 1010.6
20260506121705 10 40 0.0 3.2 0.00 0.00 0.00 98 1010.5
20260506121201 10 89 0.0 3.2 0.00 0.00 0.00 98 1010.5
20260506120659 10 279 0.0 4.8 0.00 0.00 0.00 98 1010.2
20260506120156 10 249 1.6 3.2 0.00 0.00 0.00 98 1010.5
20260506115654 10 317 6.4 8.0 0.00 0.00 0.00 98 1010.4
20260506115152 10 81 4.8 6.4 0.00 0.00 0.00 98 1010.3
20260506114649 10 64 3.2 6.4 0.00 0.00 0.00 99 1010.2
20260506114147 10 283 8.0 11.3 0.00 0.00 0.00 99 1010.2
20260506113645 10 83 3.2 4.8 0.00 0.00 0.00 99 1009.9
20260506113142 10 73 0.0 3.2 0.00 0.00 0.00 99 1010.0
20260506112638 10 294 0.0 6.4 0.00 0.00 0.00 99 1009.8
20260506112136 10 348 0.0 4.8 0.00 0.00 0.00 99 1009.8
20260506111633 10 75 1.6 3.2 0.00 0.00 0.00 99 1009.8
20260506111131 10 212 0.0 6.4 0.00 0.00 0.00 99 1009.7
20260506110628 10 355 0.0 3.2 0.00 0.00 0.00 99 1009.8
20260506110125 10 303 1.6 4.8 0.00 0.00 0.00 99 1009.7
20260506105622 10 299 0.0 4.8 0.00 0.00 0.00 99 1009.6
20260506105119 10 136 0.0 6.4 0.00 0.00 0.00 99 1009.4
20260506104617 10 69 3.2 4.8 0.00 0.00 0.00 99 1009.3
20260506104114 10 292 1.6 8.0 0.00 0.00 0.00 99 1009.2
20260506103612 10 315 1.6 3.2 0.00 0.00 0.00 99 1009.3
20260506103108 10 180 0.0 8.0 0.00 0.00 0.00 99 1009.3
20260506102607 10 45 0.0 4.8 0.00 0.00 0.00 99 1009.2
20260506102104 10 17 0.0 3.2 0.00 0.00 0.00 99 1009.1
20260506101600 10 92 1.6 3.2 0.00 0.00 0.00 99 1009.1
20260506101057 10 75 0.0 3.2 0.00 0.00 0.00 99 1008.9
20260506100555 10 56 1.6 3.2 0.00 0.00 0.00 99 1008.9
20260506100053 10 89 0.0 3.2 0.00 0.00 0.00 99 1009.0
20260506095552 10 249 0.0 3.2 0.00 0.00 0.00 99 1008.9
20260506095048 10 29 0.0 3.2 0.00 0.00 0.00 99 1008.8
20260506094545 10 123 3.2 4.8 0.00 0.00 0.00 99 1008.7
20260506094043 10 157 3.2 4.8 0.00 0.00 0.00 99 1008.9
20260506093541 10 63 1.6 3.2 0.00 0.00 0.00 99 1008.9
20260506093038 10 89 0.0 4.8 0.00 0.00 0.00 99 1008.8
20260506092536 10 115 3.2 3.2 0.00 0.00 0.00 99 1008.8
20260506092033 10 217 0.0 4.8 0.00 0.00 0.00 99 1008.7
20260506091531 10 102 0.0 1.6 0.00 0.00 0.00 99 1008.7
20260506091028 10 166 0.0 3.2 0.00 0.00 0.00 99 1008.8
20260506090526 10 191 0.0 3.2 0.00 0.00 0.00 98 1008.6
20260506090022 10 104 0.0 4.8 0.00 0.00 0.00 98 1008.4
20260506085519 10 68 0.0 3.2 0.00 0.00 0.00 98 1008.5
20260506085015 10 106 1.6 3.2 0.00 0.00 0.00 98 1008.5
20260506084512 10 143 3.2 4.8 0.00 0.00 0.00 98 1008.3
20260506084008 10 138 3.2 3.2 0.00 0.00 0.00 98 1008.4
20260506083506 10 120 3.2 3.2 0.00 0.00 0.00 97 1008.5
20260506083003 10 142 0.0 3.2 0.00 0.00 0.00 97 1008.4
20260506082500 10 120 3.2 3.2 0.00 0.00 0.00 97 1008.3
20260506081955 10 82 3.2 3.2 0.00 0.00 0.00 97 1008.2
20260506081454 10 103 0.0 3.2 0.00 0.00 0.00 97 1008.2
20260506080951 11 123 0.0 3.2 0.00 0.00 0.00 96 1008.2
20260506080448 11 80 0.0 3.2 0.00 0.00 0.00 96 1008.2
20260506073432 11 108 1.6 3.2 0.00 0.00 0.00 94 1008.3
20260506072929 11 204 0.0 3.2 0.00 0.00 0.00 93 1008.3
20260506072426 12 329 0.0 3.2 0.00 0.00 0.00 92 1008.3
20260506071924 12 154 0.0 3.2 0.00 0.00 0.00 92 1008.3
20260506071422 12 284 0.0 3.2 0.00 0.00 0.00 91 1008.2
20260506070918 12 297 0.0 3.2 0.00 0.00 0.00 91 1008.1
20260506070415 12 145 1.6 4.8 0.00 0.00 0.00 91 1008.3